Torna al catalogo

SCOUT A R/B

AttivoPO
NORAD 2413·ROCKET BODY·🇺🇸 United States

Lanciato Aug 18, 1966 da Vandenberg Space Force Base

Loading…

Prossimi Passaggi (prossime 24 ore)

TLE

AggiornatoSource: Space-Track

Epoca: Sep 14, 2026, 21:08 UTC

1 02413U 66076B   26257.88112967  .00000050  00000-0  57181-4 0  9990
2 02413  88.8432  61.2588 0032761 163.2680 196.9560 13.51881280960772

Traccia SCOUT A R/B in tempo reale con AllMySat

Download on the App Store